HULIANWANG DIGUI-125 (67065 NORAD) Tracking and Keplerian Element Data

This shows tracking and keplerian element data for the satellite.

Feedback or suggestion? Click here.




ElementValue
Catalog67065
NameHULIANWANG DIGUI-125
Epoch Orbit118
Epoch Day354.20147961
Epoch Year2025
RAAN340.7071
Inclination50.0011
Eccentricity0.0012271
Argument of Perigee279.4128
Mean Anonmoly80.5399
Mean Motion14.25954033
Decay Rate7.5E-07
L11 67065U 25295G 25354.20147961 .00000075 00000+0 97749-4 0 9997
L22 67065 50.0011 340.7071 0012271 279.4128 80.5399 14.25954033 1181



Live tracking and technical data element details for HULIANWANG DIGUI-125 (NORAD 67065). HULIANWANG DIGUI-125 can be tracked NOW for your location showing map with azimuth and elevation plus other details from your city location.







IsCatalogInMostPopularTable: catalog: 67065, numindb: 13
Update: records affected: 1



GetName: 67065 HULIANWANG DIGUI-125

Hit Count: updated at: Fri, 16 Jan 2026 09:04:10 GMT